Home   Weather   Judenburg   Past weeks

Flag for Austria Past Weather in Judenburg, Styria, Austria — Yesterday and Last 2 Weeks

Now
55 °F

Broken clouds.


Feels Like: 54 °F
Forecast: 49 / 65 °F
Wind: 6 mph from East

Location: Zeltweg

Current Time: May 23, 2017 at 11:07:34 am

Latest Report: May 23, 2017 at 10:20 am


Visibility: 19 mi

Pressure: 30.12 "Hg (27.58 "Hg at 739m altitude)

Humidity: 88%

Dew Point: 52 °F

Location of JudenburgLocation

Past Weather in Judenburg — Graph

°F

Judenburg Temperature Yesterday

Maximum temperature yesterday: 73 °F (at 1:50 pm)
Minimum temperature yesterday: 37 °F (at 5:50 am)
Average temperature yesterday: 58 °F

High & Low Weather Summary for the Past Weeks

 TemperatureHumidityPressure
High77 °F (May 19, 3:20 pm)100% (May 12, 8:50 pm)30.45 "Hg (May 12, 8:50 pm)
Low34 °F (May 10, 1:50 am)27% (May 19, 3:50 pm)29.65 "Hg (May 12, 1:50 am)
Average59 °F59%30.04 "Hg
* Reported May 8 9:20 am — May 23 9:50 am, Judenburg. Weather by CustomWeather, © 2017

Note: Actual official high and low records may vary slightly from our data, if they occured in-between our weather recording intervals... More about our weather records

Advertising

Judenburg Weather History for the Previous 24 Hours

Scroll right to see more
 ConditionsComfort  
Time TempWeatherWind HumidityBarometerVisibility
9:50 am
Tue, May 23
54 °FSprinkles. Partly sunny.2 mph82%30.12 "Hg19 mi
9:20 am54 °FPartly sunny.2 mph77%30.12 "Hg19 mi
8:50 am54 °FScattered clouds.2 mph77%30.12 "Hg19 mi
8:20 am52 °FBroken clouds.2 mph82%30.12 "Hg19 mi
7:50 am50 °FScattered clouds.2 mph88%30.12 "Hg12 mi
7:20 am48 °FPartly sunny.2 mph87%30.12 "Hg12 mi
6:50 am48 °FPartly sunny.2 mph87%30.12 "Hg9 mi
5:50 am48 °FBroken clouds.3 mph87%30.09 "Hg9 mi
4:50 am48 °FPartly cloudy.2 mph94%30.09 "Hg9 mi
1:50 am50 °FPassing clouds.1 mph94%30.09 "Hg9 mi
10:50 pm
Mon, May 22
54 °FPartly cloudy.2 mph94%30.12 "Hg9 mi
9:50 pm55 °FPassing clouds.5 mph88%30.12 "Hg9 mi
8:50 pm54 °FPartly cloudy.7 mph94%30.09 "Hg12 mi
7:50 pm55 °FRain showers. Mostly cloudy.6 mph88%30.09 "Hg9 mi
6:50 pm57 °FSprinkles. More clouds than sun.2 mph82%30.09 "Hg9 mi
6:20 pm57 °FSprinkles. Partly sunny.3 mph82%30.09 "Hg9 mi
5:50 pm59 °FSprinkles. Partly sunny.6 mph72%30.07 "Hg12 mi
5:20 pm57 °FThunderstorms. Partly sunny.9 mph67%30.07 "Hg12 mi
4:50 pm61 °FThunderstorms. Partly sunny.24 mph55%30.07 "Hg12 mi
4:20 pm68 °FThunderstorms. Partly sunny.9 mph49%30.04 "Hg12 mi
3:50 pm70 °FThunderstorms. Partly sunny.12 mph46%30.04 "Hg19 mi
3:20 pm72 °FPartly sunny.10 mph41%30.04 "Hg19 mi
2:50 pm73 °FPartly sunny.6 mph38%30.04 "Hg19 mi
2:20 pm73 °FBroken clouds.7 mph38%30.04 "Hg19 mi
1:50 pm73 °FBroken clouds.5 mph36%30.04 "Hg25 mi
1:20 pm72 °FBroken clouds.3 mph41%30.07 "Hg25 mi
12:50 pm70 °FPartly sunny.3 mph40%30.07 "Hg25 mi
12:20 pm68 °FPartly sunny.2 mph46%30.07 "Hg25 mi
11:50 am66 °FPartly sunny.3 mph49%30.09 "Hg25 mi
11:20 am61 °FPartly sunny.2 mph55%30.12 "Hg25 mi
Weather by CustomWeather, © 2017

See weather overviewHow to use our weather pages